Home   Weather   Västerås   Past weeks

Flag for Sweden Past Weather in Västerås, Sweden — Yesterday and Last 2 Weeks

41 °F

Drizzle. Mostly cloudy.

Feels Like: 33 °F
Forecast: 42 / 45 °F
Wind: 14 mph from Northeast

Location: Vasteras / Hasslo

Current Time: Oct 23, 2016 at 8:25:11 AM

Latest Report: Oct 23, 2016 at 7:50 AM

Visibility: 5 mi

Pressure: 30.27 "Hg

Humidity: 87%

Dew Point: 37 °F

Location of VästeråsLocation

Past Weather in Västerås — Graph


Västerås Temperature Yesterday

Maximum temperature yesterday: 41 °F (at 12:20 AM)
Minimum temperature yesterday: 37 °F (at 6:20 PM)
Average temperature yesterday: 39 °F

High & Low Weather Summary for the Past Weeks

High50 °F (Oct 9, 3:50 PM)94% (Oct 19, 12:20 PM)30.57 "Hg (Oct 19, 12:20 PM)
Low37 °F (Oct 13, 8:50 PM)54% (Oct 10, 3:50 PM)30.15 "Hg (Oct 19, 2:50 AM)
Average44 °F75%30.43 "Hg
* Reported Oct 8 7:20 AM — Oct 23 7:20 AM, Västerås, Weather by CustomWeather, © 2016

Note: Actual official high and low records may vary slightly from our data, if they occured in-between our weather recording intervals... More about our weather records


Västerås Weather History for the Previous 24 Hours

Scroll right to see more
Time TempWeatherWind HumidityBarometerVisibility
7:20 AM
Sun, Oct 23
41 °FLow clouds.14 mph87%30.27 "HgN/A
6:50 AM41 °FDrizzle. Low clouds.14 mph87%30.27 "HgN/A
6:20 AM39 °FLight rain. Mostly cloudy.13 mph93%30.27 "HgN/A
5:50 AM39 °FPartly cloudy.14 mph93%30.27 "HgN/A
5:20 AM39 °FFog.14 mph93%30.27 "Hg4 mi
4:50 AM39 °FPartly cloudy.13 mph87%30.30 "HgN/A
4:20 AM37 °FDrizzle. Mostly cloudy.13 mph93%30.30 "HgN/A
3:50 AM37 °FLight rain. Partly cloudy.13 mph93%30.30 "Hg3 mi
3:20 AM39 °FLight rain. Low clouds.14 mph87%30.30 "Hg4 mi
2:50 AM39 °FDrizzle. Overcast.13 mph87%30.30 "Hg4 mi
2:20 AM39 °FDrizzle. Overcast.13 mph81%30.30 "HgN/A
1:50 AM39 °FOvercast.10 mph81%30.30 "HgN/A
1:20 AM39 °FOvercast.12 mph81%30.30 "HgN/A
12:50 AM41 °FOvercast.12 mph70%30.33 "HgN/A
12:20 AM41 °FOvercast.12 mph70%30.33 "HgN/A
11:50 PM
Sat, Oct 22
39 °FOvercast.14 mph75%30.33 "HgN/A
11:20 PM39 °FOvercast.13 mph75%30.33 "HgN/A
10:50 PM39 °FOvercast.12 mph75%30.33 "HgN/A
10:20 PM39 °FOvercast.12 mph75%30.33 "HgN/A
9:50 PM39 °FOvercast.12 mph75%30.33 "HgN/A
9:20 PM39 °FOvercast.10 mph75%30.33 "HgN/A
8:50 PM37 °FOvercast.12 mph87%30.33 "HgN/A
8:20 PM37 °FOvercast.13 mph87%30.33 "HgN/A
7:50 PM37 °FPassing clouds.13 mph87%30.33 "HgN/A
7:20 PM37 °FLight rain. Passing clouds.13 mph87%30.33 "HgN/A
6:50 PM37 °FDrizzle. Overcast.16 mph87%30.33 "HgN/A
6:20 PM37 °FMostly cloudy.16 mph87%30.33 "HgN/A
5:50 PM39 °FDrizzle. Overcast.15 mph75%30.33 "HgN/A
5:20 PM39 °FOvercast.16 mph75%30.33 "HgN/A
4:50 PM39 °FOvercast.20 mph70%30.33 "HgN/A
4:20 PM39 °FPartly sunny.16 mph70%30.33 "HgN/A
3:50 PM39 °FLight rain. Overcast.15 mph75%30.33 "HgN/A
3:20 PM41 °FOvercast.15 mph66%30.33 "HgN/A
2:50 PM41 °FPartly sunny.16 mph66%30.33 "HgN/A
2:20 PM39 °FPartly sunny.14 mph70%30.33 "HgN/A
1:50 PM39 °FOvercast.17 mph70%30.33 "HgN/A
1:20 PM39 °FPartly sunny.14 mph70%30.33 "HgN/A
12:50 PM39 °FPartly sunny.15 mph70%30.33 "HgN/A
12:20 PM39 °FPartly sunny.14 mph70%30.33 "HgN/A
11:50 AM39 °FOvercast.15 mph70%30.33 "HgN/A
11:20 AM39 °FOvercast.17 mph70%30.33 "HgN/A
10:50 AM39 °FOvercast.17 mph70%30.33 "HgN/A
10:20 AM39 °FOvercast.15 mph70%30.33 "HgN/A
9:50 AM39 °FOvercast.16 mph70%30.33 "HgN/A
9:20 AM39 °FOvercast.16 mph70%30.33 "HgN/A
8:50 AM39 °FOvercast.15 mph70%30.33 "HgN/A
8:20 AM39 °FOvercast.16 mph75%30.33 "HgN/A
Weather by CustomWeather, © 2016

See weather overviewHow to use our weather pages